| time (UTC) | temp F | wind direction | speed MPH | gust MPH | rain 1hr in | rain 24hr in | rain mn in | humidity % | barometer mb |
| 20260906201532 | 68 | 240 | 5.0 | 12.0 | 0.00 | 0.04 | 0.04 | 61 | 1021.4 |
| 20260906201027 | 68 | 274 | 5.0 | 12.0 | 0.00 | 0.04 | 0.04 | 60 | 1021.5 |
| 20260906200521 | 69 | 297 | 4.0 | 10.0 | 0.00 | 0.04 | 0.04 | 58 | 1021.6 |
| 20260906200015 | 69 | 291 | 4.0 | 10.0 | 0.00 | 0.04 | 0.04 | 58 | 1021.6 |
| 20260906195509 | 70 | 289 | 4.0 | 10.0 | 0.00 | 0.04 | 0.04 | 59 | 1021.7 |
| 20260906195003 | 70 | 273 | 4.0 | 10.0 | 0.00 | 0.04 | 0.04 | 59 | 1021.5 |
| 20260906193445 | 74 | 228 | 4.0 | 9.0 | 0.00 | 0.04 | 0.04 | 50 | 1021.4 |
| 20260906192433 | 74 | 298 | 4.0 | 8.0 | 0.00 | 0.04 | 0.04 | 45 | 1021.4 |
| 20260906191421 | 74 | 309 | 4.0 | 9.0 | 0.00 | 0.04 | 0.04 | 45 | 1021.4 |
| 20260906190915 | 75 | 347 | 4.0 | 8.0 | 0.00 | 0.04 | 0.04 | 45 | 1021.4 |
| 20260906190409 | 75 | 340 | 4.0 | 11.0 | 0.00 | 0.04 | 0.04 | 46 | 1021.3 |
| 20260906185904 | 75 | 314 | 4.0 | 11.0 | 0.00 | 0.04 | 0.04 | 42 | 1021.3 |
| 20260906185400 | 75 | 271 | 3.0 | 9.0 | 0.00 | 0.04 | 0.04 | 44 | 1021.3 |
| 20260906184852 | 75 | 334 | 3.0 | 8.0 | 0.00 | 0.04 | 0.04 | 49 | 1021.3 |
| 20260906184345 | 74 | 298 | 3.0 | 8.0 | 0.00 | 0.04 | 0.04 | 49 | 1021.3 |
| 20260906183839 | 74 | 324 | 3.0 | 9.0 | 0.00 | 0.04 | 0.04 | 52 | 1021.4 |
| 20260906183333 | 74 | 312 | 4.0 | 9.0 | 0.00 | 0.04 | 0.04 | 51 | 1021.6 |
| 20260906182827 | 74 | 321 | 4.0 | 7.0 | 0.00 | 0.04 | 0.04 | 50 | 1021.6 |
| 20260906182321 | 74 | 345 | 4.0 | 9.0 | 0.00 | 0.04 | 0.04 | 50 | 1021.6 |
| 20260906181814 | 74 | 11 | 4.0 | 11.0 | 0.00 | 0.04 | 0.04 | 48 | 1021.7 |
| 20260906181309 | 75 | 50 | 4.0 | 11.0 | 0.00 | 0.04 | 0.04 | 47 | 1021.7 |
| 20260906180257 | 75 | 302 | 3.0 | 6.0 | 0.00 | 0.04 | 0.04 | 48 | 1021.7 |
| 20260906175752 | 74 | 17 | 2.0 | 6.0 | 0.00 | 0.04 | 0.04 | 47 | 1021.8 |
| 20260906175245 | 74 | 38 | 2.0 | 5.0 | 0.00 | 0.04 | 0.04 | 48 | 1021.8 |
| 20260906174739 | 74 | 4 | 2.0 | 5.0 | 0.00 | 0.04 | 0.04 | 48 | 1021.8 |
| 20260906174233 | 74 | 75 | 2.0 | 5.0 | 0.00 | 0.04 | 0.04 | 48 | 1021.8 |
| 20260906173727 | 75 | 37 | 1.0 | 4.0 | 0.00 | 0.04 | 0.04 | 47 | 1021.8 |
| 20260906173221 | 74 | 6 | 1.0 | 4.0 | 0.00 | 0.04 | 0.04 | 47 | 1021.8 |
| 20260906172715 | 74 | 358 | 0.0 | 3.0 | 0.00 | 0.04 | 0.04 | 47 | 1021.6 |
| 20260906172209 | 74 | 39 | 0.0 | 0.0 | 0.00 | 0.04 | 0.04 | 47 | 1021.5 |
| 20260906171703 | 74 | 32 | 0.0 | 0.0 | 0.00 | 0.04 | 0.04 | 45 | 1021.3 |
| 20260906171156 | 74 | 252 | 0.0 | 0.0 | 0.00 | 0.04 | 0.04 | 47 | 1021.3 |
| 20260906170145 | 73 | 252 | 0.0 | 0.0 | 0.00 | 0.04 | 0.04 | 48 | 1021.1 |
| 20260906165133 | 73 | 202 | 0.0 | 0.0 | 0.00 | 0.04 | 0.04 | 49 | 1021.0 |
| 20260906164628 | 73 | 201 | 0.0 | 0.0 | 0.00 | 0.04 | 0.04 | 48 | 1021.0 |
| 20260906164123 | 73 | 202 | 0.0 | 0.0 | 0.00 | 0.04 | 0.04 | 49 | 1021.1 |
| 20260906163615 | 72 | 202 | 0.0 | 0.0 | 0.00 | 0.04 | 0.04 | 49 | 1021.0 |
| 20260906163109 | 72 | 201 | 0.0 | 0.0 | 0.00 | 0.04 | 0.04 | 51 | 1020.9 |
| 20260906162603 | 72 | 206 | 0.0 | 0.0 | 0.00 | 0.04 | 0.04 | 52 | 1020.9 |
| 20260906162057 | 71 | 206 | 0.0 | 0.0 | 0.00 | 0.04 | 0.04 | 54 | 1020.9 |
| 20260906160538 | 70 | 206 | 0.0 | 0.0 | 0.00 | 0.04 | 0.04 | 54 | 1020.8 |
| 20260906155533 | 69 | 221 | 0.0 | 3.0 | 0.00 | 0.04 | 0.04 | 58 | 1020.7 |
| 20260906155032 | 69 | 262 | 0.0 | 2.0 | 0.00 | 0.04 | 0.04 | 59 | 1020.8 |
| 20260906154530 | 69 | 255 | 0.0 | 2.0 | 0.00 | 0.04 | 0.04 | 61 | 1020.7 |
| 20260906154028 | 69 | 224 | 0.0 | 2.0 | 0.00 | 0.04 | 0.04 | 65 | 1020.8 |
| 20260906153526 | 68 | 224 | 0.0 | 2.0 | 0.00 | 0.04 | 0.04 | 65 | 1020.8 |
| 20260906153026 | 67 | 232 | 0.0 | 0.0 | 0.00 | 0.04 | 0.04 | 66 | 1020.8 |
| 20260906152525 | 67 | 173 | 0.0 | 0.0 | 0.00 | 0.04 | 0.04 | 67 | 1020.7 |
| 20260906152024 | 67 | 173 | 0.0 | 0.0 | 0.00 | 0.04 | 0.04 | 67 | 1020.7 |
| 20260906151523 | 66 | 173 | 0.0 | 0.0 | 0.00 | 0.04 | 0.04 | 68 | 1020.7 |
| 20260906150521 | 66 | 173 | 0.0 | 0.0 | 0.00 | 0.04 | 0.04 | 70 | 1020.8 |
| 20260906145018 | 65 | 141 | 0.0 | 0.0 | 0.00 | 0.04 | 0.04 | 69 | 1020.5 |
| 20260906144516 | 65 | 141 | 0.0 | 0.0 | 0.00 | 0.04 | 0.04 | 68 | 1020.5 |
| 20260906144012 | 65 | 194 | 0.0 | 0.0 | 0.00 | 0.04 | 0.04 | 68 | 1020.3 |
| 20260906143514 | 65 | 226 | 0.0 | 0.0 | 0.00 | 0.04 | 0.04 | 70 | 1020.3 |
| 20260906143013 | 0 | 0.0 | 0.0 | 0.00 | 0.04 | 0.04 | 1020.2 | ||
| 20260906142513 | 0 | 0.0 | 0.0 | 0.00 | 0.04 | 0.04 | 1020.1 | ||
| 20260906142009 | 0 | 0.0 | 0.0 | 0.00 | 0.04 | 0.04 | 1020.2 | ||
| 20260906141417 | 0 | 0.0 | 0.0 | 0.00 | 0.04 | 0.04 | 1020.0 | ||
| 20260906140912 | 0 | 0.0 | 0.0 | 0.00 | 0.04 | 0.04 | 1020.0 | ||
| 20260906135411 | 0 | 0.0 | 0.0 | 0.00 | 0.04 | 0.04 | 1020.0 | ||
| 20260906134912 | 0 | 0.0 | 0.0 | 0.00 | 0.04 | 0.04 | 1020.0 | ||
| 20260906134405 | 0 | 0.0 | 0.0 | 0.00 | 0.04 | 0.04 | 1020.0 | ||
| 20260906133815 | 0 | 0.0 | 0.0 | 0.00 | 0.04 | 0.04 | 1019.9 | ||
| 20260906132811 | 0 | 0.0 | 0.0 | 0.00 | 0.04 | 0.04 | 1020.1 | ||
| 20260906132216 | 0 | 0.0 | 0.0 | 0.00 | 0.04 | 0.04 | 1020.1 | ||
| 20260906131713 | 0 | 0.0 | 0.0 | 0.00 | 0.04 | 0.04 | 1020.1 | ||
| 20260906130114 | 0 | 0.0 | 0.0 | 0.00 | 0.04 | 0.04 | 1020.1 | ||
| 20260906125613 | 0 | 0.0 | 0.0 | 0.01 | 0.04 | 0.04 | 1020.0 | ||
| 20260906125106 | 0 | 0.0 | 0.0 | 0.01 | 0.04 | 0.04 | 1019.9 | ||
| 20260906124606 | 0 | 0.0 | 0.0 | 0.01 | 0.04 | 0.04 | 1020.0 | ||
| 20260906124106 | 0 | 195 | 0.0 | 0.0 | 0.01 | 0.04 | 0.04 | 1019.9 | |
| 20260906123608 | 0 | 195 | 0.0 | 8.0 | 0.01 | 0.04 | 0.04 | 1019.9 | |
| 20260906123044 | 67 | 195 | 0.0 | 8.0 | 0.02 | 0.04 | 0.04 | 59 | 1019.8 |
| 20260906122530 | 67 | 196 | 2.0 | 8.0 | 0.02 | 0.04 | 0.04 | 59 | 1019.8 |
| 20260906120523 | 67 | 153 | 4.0 | 8.0 | 0.04 | 0.04 | 0.04 | 58 | 1019.9 |
| 20260906120024 | 66 | 164 | 4.0 | 9.0 | 0.04 | 0.04 | 0.04 | 59 | 1019.7 |
| 20260906115017 | 67 | 212 | 4.0 | 12.0 | 0.03 | 0.03 | 0.03 | 58 | 1019.8 |
| 20260906114511 | 67 | 161 | 4.0 | 10.0 | 0.03 | 0.03 | 0.03 | 57 | 1019.8 |
| 20260906114006 | 67 | 267 | 3.0 | 9.0 | 0.03 | 0.03 | 0.03 | 56 | 1019.8 |
| 20260906113459 | 67 | 205 | 3.0 | 9.0 | 0.03 | 0.03 | 0.03 | 57 | 1019.8 |
| 20260906112954 | 67 | 131 | 2.0 | 9.0 | 0.02 | 0.02 | 0.02 | 59 | 1019.8 |
| 20260906111435 | 71 | 180 | 3.0 | 6.0 | 0.00 | 0.00 | 0.01 | 49 | 1019.9 |
| 20260906110929 | 71 | 189 | 1.0 | 6.0 | 0.00 | 0.00 | 0.00 | 44 | 1019.7 |
| 20260906110423 | 73 | 184 | 1.0 | 2.0 | 0.00 | 0.00 | 0.00 | 45 | 1019.4 |
| 20260906105917 | 73 | 195 | 1.0 | 3.0 | 0.00 | 0.00 | 0.00 | 39 | 1019.2 |
| 20260906105411 | 73 | 186 | 2.0 | 4.0 | 0.00 | 0.00 | 0.00 | 39 | 1019.2 |
| 20260906104904 | 73 | 192 | 2.0 | 4.0 | 0.00 | 0.00 | 0.00 | 40 | 1019.3 |
| 20260906104359 | 73 | 188 | 2.0 | 3.0 | 0.00 | 0.00 | 0.00 | 41 | 1019.3 |
| 20260906103853 | 73 | 148 | 2.0 | 4.0 | 0.00 | 0.00 | 0.00 | 39 | 1019.2 |
| 20260906102841 | 73 | 156 | 2.0 | 3.0 | 0.00 | 0.00 | 0.00 | 38 | 1019.2 |
| 20260906101835 | 74 | 165 | 1.0 | 3.0 | 0.00 | 0.00 | 0.00 | 37 | 1019.1 |
| 20260906101332 | 74 | 171 | 2.0 | 5.0 | 0.00 | 0.00 | 0.00 | 37 | 1019.2 |
| 20260906100832 | 75 | 210 | 2.0 | 5.0 | 0.00 | 0.00 | 0.00 | 36 | 1019.1 |
| 20260906100334 | 75 | 191 | 3.0 | 8.0 | 0.00 | 0.00 | 0.00 | 33 | 1019.0 |
| 20260906095831 | 75 | 141 | 3.0 | 8.0 | 0.00 | 0.00 | 0.00 | 33 | 1018.9 |
| 20260906095330 | 75 | 141 | 3.0 | 6.0 | 0.00 | 0.00 | 0.00 | 33 | 1019.0 |
| 20260906094832 | 75 | 159 | 4.0 | 7.0 | 0.00 | 0.00 | 0.00 | 33 | 1019.0 |
| 20260906094330 | 75 | 195 | 4.0 | 8.0 | 0.00 | 0.00 | 0.00 | 32 | 1018.9 |
| 20260906093830 | 75 | 160 | 4.0 | 8.0 | 0.00 | 0.00 | 0.00 | 33 | 1018.9 |
| 20260906093331 | 75 | 193 | 3.0 | 9.0 | 0.00 | 0.00 | 0.00 | 33 | 1018.8 |
| 20260906091830 | 75 | 192 | 4.0 | 8.0 | 0.00 | 0.00 | 0.00 | 33 | 1018.9 |
| 20260906091333 | 75 | 183 | 4.0 | 8.0 | 0.00 | 0.00 | 0.00 | 33 | 1018.9 |
| 20260906090831 | 75 | 157 | 3.0 | 7.0 | 0.00 | 0.00 | 0.00 | 33 | 1018.9 |
| 20260906090331 | 75 | 183 | 4.0 | 7.0 | 0.00 | 0.00 | 0.00 | 33 | 1019.0 |
| 20260906085832 | 75 | 186 | 3.0 | 6.0 | 0.00 | 0.00 | 0.00 | 33 | 1019.0 |
| 20260906085325 | 75 | 166 | 3.0 | 11.0 | 0.00 | 0.00 | 0.00 | 33 | 1019.0 |
| 20260906084819 | 75 | 113 | 3.0 | 11.0 | 0.00 | 0.00 | 0.00 | 33 | 1019.0 |
| 20260906083810 | 75 | 191 | 4.0 | 8.0 | 0.00 | 0.00 | 0.00 | 33 | 1019.1 |
| 20260906083301 | 75 | 195 | 3.0 | 5.0 | 0.00 | 0.00 | 0.00 | 33 | 1019.1 |
| 20260906082755 | 75 | 169 | 3.0 | 7.0 | 0.00 | 0.00 | 0.00 | 33 | 1019.2 |
| 20260906082249 | 75 | 164 | 3.0 | 7.0 | 0.00 | 0.00 | 0.00 | 33 | 1019.3 |
| 20260906081743 | 75 | 155 | 3.0 | 7.0 | 0.00 | 0.00 | 0.00 | 33 | 1019.3 |
| 20260906081238 | 75 | 189 | 3.0 | 7.0 | 0.00 | 0.00 | 0.00 | 33 | 1019.2 |
| 20260906080731 | 75 | 200 | 4.0 | 7.0 | 0.00 | 0.00 | 0.00 | 33 | 1019.3 |
| 20260906075718 | 75 | 139 | 4.0 | 8.0 | 0.00 | 0.00 | 0.00 | 32 | 1019.2 |
| 20260906075213 | 75 | 144 | 3.0 | 8.0 | 0.00 | 0.00 | 0.00 | 32 | 1019.2 |
| 20260906074707 | 75 | 179 | 4.0 | 7.0 | 0.00 | 0.00 | 0.00 | 32 | 1019.3 |
| 20260906074201 | 75 | 211 | 4.0 | 7.0 | 0.00 | 0.00 | 0.00 | 32 | 1019.3 |
| 20260906073655 | 75 | 158 | 3.0 | 7.0 | 0.00 | 0.00 | 0.00 | 32 | 1019.4 |
| 20260906073149 | 75 | 207 | 4.0 | 7.0 | 0.00 | 0.00 | 0.00 | 32 | 1019.6 |
| 20260906072644 | 75 | 169 | 4.0 | 6.0 | 0.00 | 0.00 | 0.00 | 32 | 1019.6 |
| 20260906072137 | 75 | 214 | 4.0 | 7.0 | 0.00 | 0.00 | 0.00 | 32 | 1019.7 |
| 20260906071634 | 75 | 182 | 4.0 | 7.0 | 0.00 | 0.00 | 0.00 | 32 | 1019.7 |
| 20260906071135 | 75 | 210 | 3.0 | 6.0 | 0.00 | 0.00 | 0.00 | 32 | 1019.7 |
| 20260906070634 | 75 | 179 | 3.0 | 6.0 | 0.00 | 0.00 | 0.00 | 32 | 1019.7 |
| 20260906065634 | 75 | 219 | 2.0 | 5.0 | 0.00 | 0.00 | 0.00 | 32 | 1019.6 |
| 20260906065136 | 75 | 162 | 3.0 | 6.0 | 0.00 | 0.00 | 0.00 | 32 | 1019.6 |
| 20260906064636 | 75 | 184 | 3.0 | 6.0 | 0.00 | 0.00 | 0.00 | 32 | 1019.6 |
| 20260906064134 | 75 | 153 | 2.0 | 6.0 | 0.00 | 0.00 | 0.00 | 32 | 1019.6 |
| 20260906063634 | 75 | 198 | 1.0 | 4.0 | 0.00 | 0.00 | 0.00 | 32 | 1019.6 |
| 20260906063132 | 75 | 194 | 0.0 | 2.0 | 0.00 | 0.00 | 0.00 | 32 | 1019.6 |
| 20260906062634 | 75 | 181 | 1.0 | 4.0 | 0.00 | 0.00 | 0.00 | 32 | 1019.6 |
| 20260906062131 | 75 | 179 | 2.0 | 5.0 | 0.00 | 0.00 | 0.00 | 32 | 1019.6 |
| 20260906061630 | 75 | 217 | 3.0 | 8.0 | 0.00 | 0.00 | 0.00 | 31 | 1019.4 |
| 20260906061130 | 75 | 207 | 3.0 | 8.0 | 0.00 | 0.00 | 0.00 | 31 | 1019.3 |
| 20260906060629 | 75 | 195 | 3.0 | 8.0 | 0.00 | 0.00 | 0.00 | 31 | 1019.4 |
| 20260906055627 | 75 | 165 | 3.0 | 6.0 | 0.00 | 0.00 | 0.00 | 31 | 1019.4 |
| 20260906055129 | 75 | 189 | 3.0 | 6.0 | 0.00 | 0.00 | 0.00 | 32 | 1019.6 |
| 20260906054623 | 74 | 186 | 1.0 | 6.0 | 0.00 | 0.00 | 0.00 | 33 | 1019.6 |
| 20260906054117 | 73 | 165 | 1.0 | 3.0 | 0.00 | 0.00 | 0.00 | 33 | 1019.4 |
| 20260906053611 | 72 | 141 | 1.0 | 2.0 | 0.00 | 0.00 | 0.00 | 34 | 1019.6 |
| 20260906053105 | 73 | 187 | 1.0 | 2.0 | 0.00 | 0.00 | 0.00 | 32 | 1019.4 |
| 20260906052559 | 73 | 187 | 0.0 | 2.0 | 0.00 | 0.00 | 0.00 | 32 | 1019.6 |
| 20260906052057 | 74 | 176 | 0.0 | 2.0 | 0.00 | 0.00 | 0.00 | 31 | 1019.4 |
| 20260906051055 | 75 | 189 | 2.0 | 3.0 | 0.00 | 0.00 | 0.00 | 30 | 1019.4 |
| 20260906050555 | 74 | 177 | 2.0 | 4.0 | 0.00 | 0.00 | 0.00 | 31 | 1019.4 |
| 20260906050052 | 74 | 200 | 2.0 | 4.0 | 0.00 | 0.00 | 0.00 | 30 | 1019.3 |
| 20260906045050 | 75 | 192 | 1.0 | 3.0 | 0.00 | 0.00 | 0.00 | 29 | 1019.6 |
| 20260906044551 | 76 | 158 | 2.0 | 5.0 | 0.00 | 0.00 | 0.00 | 29 | 1019.6 |
| 20260906044050 | 76 | 214 | 2.0 | 5.0 | 0.00 | 0.00 | 0.00 | 29 | 1019.7 |
| 20260906043549 | 76 | 208 | 3.0 | 7.0 | 0.00 | 0.00 | 0.00 | 28 | 1019.7 |
| 20260906043048 | 76 | 168 | 4.0 | 8.0 | 0.00 | 0.00 | 0.00 | 28 | 1019.7 |
| 20260906042547 | 76 | 149 | 4.0 | 8.0 | 0.00 | 0.00 | 0.00 | 28 | 1019.7 |
| 20260906042049 | 76 | 180 | 3.0 | 8.0 | 0.00 | 0.00 | 0.00 | 28 | 1019.6 |
| 20260906041546 | 77 | 175 | 3.0 | 8.0 | 0.00 | 0.00 | 0.00 | 27 | 1019.6 |
| 20260906041050 | 77 | 191 | 3.0 | 10.0 | 0.00 | 0.00 | 0.00 | 27 | 1019.6 |
| 20260906040546 | 77 | 158 | 4.0 | 10.0 | 0.00 | 0.00 | 0.00 | 27 | 1019.6 |
| 20260906040047 | 77 | 169 | 4.0 | 8.0 | 0.00 | 0.00 | 0.00 | 27 | 1019.6 |
| 20260906035547 | 77 | 150 | 3.0 | 8.0 | 0.00 | 0.00 | 0.00 | 26 | 1019.4 |
| 20260906035045 | 77 | 131 | 2.0 | 6.0 | 0.00 | 0.00 | 0.00 | 26 | 1019.4 |
| 20260906034047 | 77 | 103 | 3.0 | 7.0 | 0.00 | 0.00 | 0.00 | 26 | 1019.4 |
| 20260906033543 | 78 | 172 | 3.0 | 7.0 | 0.00 | 0.00 | 0.00 | 26 | 1019.3 |
| 20260906033045 | 78 | 166 | 3.0 | 8.0 | 0.00 | 0.00 | 0.00 | 26 | 1019.3 |
| 20260906032544 | 78 | 138 | 3.0 | 8.0 | 0.00 | 0.00 | 0.00 | 25 | 1019.3 |
| 20260906032041 | 78 | 122 | 2.0 | 6.0 | 0.00 | 0.00 | 0.00 | 25 | 1019.3 |
| 20260906031542 | 78 | 152 | 2.0 | 6.0 | 0.00 | 0.00 | 0.00 | 25 | 1019.2 |
| 20260906031042 | 78 | 185 | 3.0 | 7.0 | 0.00 | 0.00 | 0.00 | 25 | 1019.2 |
| 20260906030544 | 78 | 202 | 3.0 | 8.0 | 0.00 | 0.00 | 0.00 | 25 | 1019.2 |
| 20260906030042 | 78 | 159 | 3.0 | 8.0 | 0.00 | 0.00 | 0.00 | 25 | 1019.1 |
| 20260906025542 | 78 | 207 | 3.0 | 8.0 | 0.00 | 0.00 | 0.00 | 25 | 1019.0 |
| 20260906025042 | 78 | 104 | 3.0 | 8.0 | 0.00 | 0.00 | 0.00 | 25 | 1019.0 |
| 20260906024543 | 78 | 186 | 3.0 | 8.0 | 0.00 | 0.00 | 0.00 | 25 | 1018.9 |
| 20260906023543 | 78 | 162 | 1.0 | 4.0 | 0.00 | 0.00 | 0.00 | 25 | 1018.9 |
| 20260906022541 | 78 | 219 | 1.0 | 6.0 | 0.00 | 0.00 | 0.00 | 24 | 1018.8 |
| 20260906022042 | 79 | 161 | 1.0 | 6.0 | 0.00 | 0.00 | 0.00 | 24 | 1018.8 |
| 20260906021535 | 79 | 164 | 2.0 | 6.0 | 0.00 | 0.00 | 0.00 | 24 | 1018.8 |
| 20260906021030 | 79 | 232 | 2.0 | 9.0 | 0.00 | 0.00 | 0.00 | 23 | 1018.6 |
| 20260906020529 | 80 | 214 | 3.0 | 10.0 | 0.00 | 0.00 | 0.00 | 23 | 1018.6 |
| 20260906015526 | 80 | 134 | 4.0 | 11.0 | 0.00 | 0.00 | 0.00 | 23 | 1018.8 |
| 20260906014524 | 80 | 96 | 2.0 | 8.0 | 0.00 | 0.00 | 0.00 | 22 | 1018.6 |
| 20260906014027 | 81 | 197 | 3.0 | 8.0 | 0.00 | 0.00 | 0.00 | 22 | 1018.6 |
| 20260906013524 | 81 | 195 | 2.0 | 8.0 | 0.00 | 0.00 | 0.00 | 21 | 1018.6 |
| 20260906013024 | 82 | 98 | 1.0 | 7.0 | 0.00 | 0.00 | 0.00 | 21 | 1018.6 |
| 20260906012021 | 83 | 155 | 4.0 | 12.0 | 0.00 | 0.00 | 0.00 | 19 | 1018.8 |
| 20260906011020 | 84 | 203 | 4.0 | 11.0 | 0.00 | 0.00 | 0.00 | 19 | 1018.8 |
| 20260906010519 | 84 | 146 | 6.0 | 16.0 | 0.00 | 0.00 | 0.00 | 19 | 1018.8 |
| 20260906005021 | 86 | 187 | 4.0 | 10.0 | 0.00 | 0.00 | 0.00 | 17 | 1018.8 |
| 20260906004520 | 87 | 81 | 3.0 | 9.0 | 0.00 | 0.00 | 0.00 | 17 | 1018.6 |
| 20260906004013 | 86 | 163 | 4.0 | 13.0 | 0.00 | 0.00 | 0.00 | 18 | 1018.6 |
| 20260906003508 | 87 | 208 | 3.0 | 13.0 | 0.00 | 0.00 | 0.00 | 17 | 1018.8 |
| 20260906003002 | 87 | 134 | 3.0 | 10.0 | 0.00 | 0.00 | 0.00 | 17 | 1018.6 |
| 20260906002456 | 87 | 255 | 4.0 | 10.0 | 0.00 | 0.00 | 0.00 | 17 | 1018.6 |
| 20260906001950 | 87 | 260 | 5.0 | 12.0 | 0.00 | 0.00 | 0.00 | 17 | 1018.9 |
| 20260906001444 | 86 | 166 | 5.0 | 13.0 | 0.00 | 0.00 | 0.00 | 17 | 1018.8 |
| 20260905235420 | 88 | 225 | 5.0 | 13.0 | 0.00 | 0.00 | 0.00 | 17 | 1018.5 |
| 20260905234914 | 87 | 103 | 5.0 | 13.0 | 0.00 | 0.00 | 0.00 | 16 | 1018.4 |
| 20260905233903 | 87 | 115 | 3.0 | 11.0 | 0.00 | 0.00 | 0.00 | 17 | 1018.9 |
| 20260905233357 | 87 | 274 | 3.0 | 11.0 | 0.00 | 0.00 | 0.00 | 17 | 1018.9 |
| 20260905232850 | 86 | 91 | 3.0 | 10.0 | 0.00 | 0.00 | 0.00 | 17 | 1018.8 |
| 20260905232344 | 85 | 258 | 4.0 | 12.0 | 0.00 | 0.00 | 0.00 | 18 | 1018.8 |
| 20260905231838 | 85 | 179 | 4.0 | 12.0 | 0.00 | 0.00 | 0.00 | 17 | 1018.9 |
| 20260905231332 | 86 | 268 | 4.0 | 13.0 | 0.00 | 0.00 | 0.00 | 17 | 1018.8 |
| 20260905230826 | 86 | 292 | 4.0 | 13.0 | 0.00 | 0.00 | 0.00 | 17 | 1018.6 |
| 20260905230319 | 86 | 215 | 4.0 | 11.0 | 0.00 | 0.00 | 0.00 | 17 | 1018.6 |
| 20260905225814 | 87 | 142 | 3.0 | 10.0 | 0.00 | 0.00 | 0.00 | 16 | 1018.6 |
| 20260905225308 | 87 | 226 | 4.0 | 13.0 | 0.00 | 0.00 | 0.00 | 17 | 1018.5 |
| 20260905224803 | 86 | 310 | 6.0 | 14.0 | 0.00 | 0.00 | 0.00 | 18 | 1018.5 |
| 20260905224256 | 86 | 283 | 7.0 | 14.0 | 0.00 | 0.00 | 0.00 | 16 | 1018.6 |
| 20260905223750 | 87 | 264 | 6.0 | 14.0 | 0.00 | 0.00 | 0.00 | 16 | 1018.8 |
| 20260905223244 | 89 | 250 | 4.0 | 11.0 | 0.00 | 0.00 | 0.00 | 15 | 1018.8 |
| 20260905222232 | 88 | 281 | 4.0 | 11.0 | 0.00 | 0.00 | 0.00 | 15 | 1019.0 |
| 20260905221726 | 88 | 238 | 6.0 | 16.0 | 0.00 | 0.00 | 0.00 | 16 | 1018.9 |
| 20260905221221 | 87 | 304 | 8.0 | 17.0 | 0.00 | 0.00 | 0.00 | 15 | 1018.6 |
| 20260905220714 | 88 | 295 | 7.0 | 19.0 | 0.00 | 0.00 | 0.00 | 15 | 1018.6 |
| 20260905220208 | 88 | 239 | 5.0 | 19.0 | 0.00 | 0.00 | 0.00 | 15 | 1018.8 |
| 20260905215156 | 88 | 238 | 6.0 | 18.0 | 0.00 | 0.00 | 0.00 | 15 | 1018.9 |
| 20260905214651 | 87 | 319 | 7.0 | 14.0 | 0.00 | 0.00 | 0.00 | 15 | 1018.6 |
| 20260905214144 | 87 | 223 | 7.0 | 15.0 | 0.00 | 0.00 | 0.00 | 15 | 1019.2 |
| 20260905213638 | 88 | 229 | 5.0 | 16.0 | 0.00 | 0.00 | 0.00 | 14 | 1019.3 |
| 20260905213132 | 88 | 290 | 4.0 | 16.0 | 0.00 | 0.00 | 0.00 | 15 | 1019.3 |
| 20260905212626 | 88 | 278 | 6.0 | 16.0 | 0.00 | 0.00 | 0.00 | 15 | 1019.3 |
| 20260905212121 | 87 | 250 | 8.0 | 21.0 | 0.00 | 0.00 | 0.00 | 15 | 1019.3 |
| 20260905211614 | 88 | 190 | 6.0 | 21.0 | 0.00 | 0.00 | 0.00 | 15 | 1019.1 |
| 20260905211108 | 88 | 225 | 5.0 | 14.0 | 0.00 | 0.00 | 0.00 | 14 | 1019.2 |
| 20260905210602 | 89 | 248 | 4.0 | 13.0 | 0.00 | 0.00 | 0.00 | 14 | 1019.1 |
| 20260905205550 | 88 | 255 | 5.0 | 14.0 | 0.00 | 0.00 | 0.00 | 15 | 1019.3 |
| 20260905204538 | 87 | 257 | 6.0 | 18.0 | 0.00 | 0.00 | 0.00 | 15 | 1019.4 |
| 20260905204032 | 87 | 193 | 5.0 | 17.0 | 0.00 | 0.00 | 0.00 | 15 | 1019.6 |
| 20260905203526 | 87 | 321 | 5.0 | 13.0 | 0.00 | 0.00 | 0.00 | 15 | 1019.4 |
| 20260905203020 | 85 | 240 | 6.0 | 16.0 | 0.00 | 0.00 | 0.00 | 17 | 1019.7 |
| 20260905202515 | 86 | 157 | 7.0 | 18.0 | 0.00 | 0.00 | 0.00 | 16 | 1019.8 |
| 20260905202008 | 87 | 88 | 5.0 | 18.0 | 0.00 | 0.00 | 0.00 | 15 | 1019.7 |